Morristown, NJ

12:24 AM EST on November 22, 2019 (GMT -0500)
Morristown Municipal

Weather History for KMMU - September, 2019

Change the Weather History Date:

Saturday, September 21, 2019

  Actual Average Record
Temperature  
Mean Temperature 64 °F -  
Max Temperature 84 °F 74 °F 93 °F (1983)
Min Temperature 44 °F 51 °F 31 °F (1937)
Degree Days  
Heating Degree Days 1    
Growing Degree Days 14 (Base 50)    
Moisture  
Dew Point 51 °F    
Average Humidity 87    
Maximum Humidity 100    
Minimum Humidity 35    
Precipitation  
Precipitation 0.00 in - - ()
Sea Level Pressure  
Sea Level Pressure 30.20 in    
Wind  
Wind Speed 0 mph ()    
Max Wind Speed 8 mph    
Max Gust Speed -    
Visibility 7.0 miles    
Events Fog    
Averages and records for this station are not official NWS values.
T = Trace of Precipitation, MM = Missing Value Source: Averaged Metar Reports

Daily Weather History Graph

Daily Weather History Graph

Search for Another Location

Airport or City:

Astronomy

Sep. 21, 2019 Rise Set
Actual Time 6:43 AM EDT 6:56 PM EDT
Civil Twilight 6:16 AM EDT 7:24 PM EDT
Nautical Twilight 5:44 AM EDT 7:56 PM EDT
Astronomical Twilight 5:11 AM EDT 8:28 PM EDT
Moon 11:29 PM EDT (9/21) 1:49 PM EDT (9/21)
Length of Visible Light 13h 07m
Length of Day
12h 12m
Waning Gibbous, 55% of the Moon is Illuminated
Sep 21
Waning Gibbous
Sep 21
Last Quarter
Sep 28
New
Oct 5
First Quarter
Oct 13
Full

Hourly Weather History & Observations

Time (EDT) Temp. Heat Index Dew Point Humidity Pressure Visibility Wind Dir Wind Speed Gust Speed Precip Events Conditions
12:15 AM 48.2 °F - 48.2 °F 100% 30.20 in 10.0 mi Calm Calm - N/A   Clear
12:35 AM 48.2 °F - 48.2 °F 100% 30.20 in 0.2 mi Calm Calm - N/A Fog Fog
12:55 AM 50.0 °F - 50.0 °F 100% 30.20 in 7.0 mi Calm Calm - N/A   Clear
1:15 AM 50.0 °F - 50.0 °F 100% 30.20 in 1.5 mi Calm Calm - N/A   Mist
1:35 AM 48.2 °F - 48.2 °F 100% 30.21 in 7.0 mi Calm Calm - N/A   Clear
1:55 AM 48.2 °F - 48.2 °F 100% 30.20 in 0.8 mi Calm Calm - N/A   Mist
2:15 AM 46.4 °F - 46.4 °F 100% 30.21 in 10.0 mi Calm Calm - N/A   Clear
2:35 AM 48.2 °F - 48.2 °F 100% 30.20 in 10.0 mi Calm Calm - N/A   Scattered Clouds
2:55 AM 46.4 °F - 46.4 °F 100% 30.20 in 10.0 mi Calm Calm - N/A   Scattered Clouds
3:15 AM 46.4 °F - 46.4 °F 100% 30.20 in 1.2 mi Calm Calm - N/A   Mist
3:35 AM 46.4 °F - 46.4 °F 100% 30.20 in 1.5 mi Calm Calm - N/A   Mist
3:55 AM 46.4 °F - 46.4 °F 100% 30.21 in 10.0 mi Calm Calm - N/A   Clear
4:15 AM 44.6 °F - 44.6 °F 100% 30.21 in 7.0 mi Calm Calm - N/A   Clear
4:35 AM 44.6 °F - 44.6 °F 100% 30.21 in 0.5 mi Calm Calm - N/A Fog Fog
4:55 AM 46.4 °F - 46.4 °F 100% 30.21 in 0.2 mi Calm Calm - N/A Fog Fog
5:15 AM 46.4 °F - 46.4 °F 100% 30.21 in 10.0 mi Calm Calm - N/A   Scattered Clouds
5:35 AM 44.6 °F - 44.6 °F 100% 30.21 in 7.0 mi Calm Calm - N/A   Scattered Clouds
5:55 AM 44.6 °F - 44.6 °F 100% 30.21 in 10.0 mi Calm Calm - N/A   Clear
6:15 AM 44.6 °F - 44.6 °F 100% 30.21 in 0.5 mi Calm Calm - N/A Fog Fog
6:35 AM 44.6 °F - 44.6 °F 100% 30.22 in 0.5 mi Calm Calm - N/A Fog Fog
6:45 AM 46.4 °F - 46.4 °F 100% 30.23 in 10.0 mi Calm Calm - N/A   Scattered Clouds
7:45 AM 51.8 °F - 51.8 °F 100% 30.23 in 10.0 mi Calm Calm - N/A   Scattered Clouds
8:50 AM 60.8 °F - 57.2 °F 88% 30.24 in 10.0 mi Calm Calm - N/A   Scattered Clouds
9:50 AM 68.0 °F - 59.0 °F 73% 30.24 in 10.0 mi Calm Calm - N/A   Scattered Clouds
10:45 AM 73.4 °F - 59.0 °F 61% 30.24 in 10.0 mi Calm Calm - N/A   Scattered Clouds
11:45 AM 78.8 °F - 59.0 °F 51% 30.23 in 10.0 mi NE 4.6 mph - N/A   Scattered Clouds
12:45 PM 78.8 °F - 53.6 °F 42% 30.22 in 10.0 mi Calm Calm - N/A   Scattered Clouds
1:50 PM 82.4 °F 81.4 °F 53.6 °F 37% 30.19 in 10.0 mi ESE 3.5 mph - N/A   Partly Cloudy
2:45 PM 84.2 °F 83.0 °F 55.4 °F 37% 30.17 in 10.0 mi East 3.5 mph - N/A   Partly Cloudy
3:58 PM 84.2 °F 83.0 °F 55.4 °F 37% 30.16 in 10.0 mi SW 8.1 mph - N/A   Partly Cloudy
4:45 PM 84.2 °F 82.8 °F 53.6 °F 35% 30.16 in 10.0 mi WNW 5.8 mph - N/A   Partly Cloudy
6:15 PM 80.6 °F 81.1 °F 59.0 °F 48% 30.16 in 10.0 mi SW 4.6 mph - N/A   Partly Cloudy
6:45 PM 71.6 °F - 62.6 °F 73% 30.16 in 10.0 mi Calm Calm - N/A   Partly Cloudy
7:45 PM 62.6 °F - 59.0 °F 88% 30.16 in 10.0 mi Calm Calm - N/A   Clear
8:45 PM 59.0 °F - 59.0 °F 100% 30.18 in 10.0 mi Calm Calm - N/A   Clear
9:45 PM 57.2 °F - 57.2 °F 100% 30.19 in 10.0 mi Calm Calm - N/A   Clear
10:35 PM 53.6 °F - 53.6 °F 100% 30.18 in 10.0 mi Calm Calm - N/A   Clear
10:55 PM 53.6 °F - 53.6 °F 100% 30.19 in 10.0 mi Calm Calm - N/A   Clear
11:15 PM 53.6 °F - 51.8 °F 94% 30.19 in 1.8 mi Calm Calm - N/A   Mist
11:35 PM 53.6 °F - 53.6 °F 100% 30.19 in 0.8 mi Calm Calm - N/A   Mist
11:55 PM 53.6 °F - 53.6 °F 100% 30.19 in 1.5 mi Calm Calm - N/A   Scattered Clouds